[Date Prev][Date Next][Thread Prev][Thread Next] - [Date Index][Thread Index][Author Index]
2 Line ISS Keps 11-4
- Subject: [sarex] 2 Line ISS Keps 11-4
- From: "Dave Larsen PhD" <doc@xxxxxxxxxxx>
- Date: Fri, 4 Nov 2005 04:10:39 -0800
ISS
1 25544U 98067A 05308.18021991 .00020915 00000-0 14432-3 0 6819
2 25544 051.6436 263.4448 0001805 106.0296 093.7046 15.74540166397711
----
Via the sarex mailing list at AMSAT.ORG courtesy of AMSAT-NA.
To unsubscribe, send "unsubscribe sarex" to Majordomo@amsat.org
AMSAT Home